Terminal Aerodrome Forecast
Issued by NWS

Home | Current Version | Previous Version | Text Only | Print | Product List | Glossary On
Versions: 1 2 3 4 5 6 7 8 9 10 11 12 13 14 15 16 17 18 19 20 21 22 23 24 25 26 27 28 29 30 31 32 33 34 35 36 37 38 39 40 41 42 43 44 45 46 47 48 49 50
000
FTUS43 KMKX 200945 AAA
TAFUES
TAF AMD
KUES 200945Z 2010/2106 07009KT 3SM -RA BR OVC002
      TEMPO 2010/2012 1SM -RA BR
     FM201200 07006KT 1/4SM -DZ FG OVC003
     FM201700 08005KT 3/4SM -DZ BR OVC003=

USA.gov is the U.S. government's official web portal to all federal, state and local government web resources and services.